TimeEST,TemperatureF,Dew PointF,Humidity,Sea Level PressureIn,VisibilityMPH,Wind Direction,Wind SpeedMPH,Gust SpeedMPH,PrecipitationIn,Events,Conditions,WindDirDegrees,DateUTC
12:51 AM,35.6,24.8,65,30.53,10.0,Calm,Calm,-,N/A,,Clear,0,2013-01-11 05:51:00
1:51 AM,37.4,23.0,56,30.51,10.0,North,3.5,-,N/A,,Clear,10,2013-01-11 06:51:00
2:51 AM,35.1,23.0,61,30.51,10.0,NNW,3.5,-,N/A,,Clear,330,2013-01-11 07:51:00
3:51 AM,33.1,23.0,66,30.48,10.0,West,4.6,-,N/A,,Clear,270,2013-01-11 08:51:00
4:51 AM,34.0,25.0,70,30.47,10.0,Calm,Calm,-,N/A,,Clear,0,2013-01-11 09:51:00
5:51 AM,36.0,25.0,64,30.46,10.0,Calm,Calm,-,N/A,,Clear,0,2013-01-11 10:51:00
6:51 AM,36.0,26.1,67,30.47,10.0,Calm,Calm,-,N/A,,Clear,0,2013-01-11 11:51:00
7:51 AM,35.1,25.0,67,30.48,10.0,Calm,Calm,-,N/A,,Clear,0,2013-01-11 12:51:00
8:51 AM,37.9,27.0,65,30.45,10.0,Calm,Calm,-,N/A,,Clear,0,2013-01-11 13:51:00
9:51 AM,39.9,26.1,58,30.45,10.0,East,4.6,-,N/A,,Clear,80,2013-01-11 14:51:00
10:51 AM,42.1,28.0,58,30.42,10.0,East,4.6,-,N/A,,Mostly Cloudy,90,2013-01-11 15:51:00
11:51 AM,42.8,30.2,61,30.36,10.0,East,5.8,-,N/A,,Overcast,100,2013-01-11 16:51:00
12:51 PM,42.1,32.0,67,30.34,10.0,East,5.8,-,0.00,Rain,Light Rain,90,2013-01-11 17:51:00
1:51 PM,42.1,35.1,76,30.32,10.0,ENE,4.6,-,0.01,Rain,Light Rain,60,2013-01-11 18:51:00
2:51 PM,42.1,35.1,76,30.30,10.0,ENE,4.6,-,0.00,Rain,Light Rain,60,2013-01-11 19:51:00
3:51 PM,42.1,36.0,79,30.26,10.0,East,5.8,-,0.00,Rain,Light Rain,80,2013-01-11 20:51:00
4:39 PM,41.0,35.6,81,30.25,10.0,ENE,4.6,-,0.00,,Overcast,60,2013-01-11 21:39:00
4:51 PM,42.1,37.0,82,30.24,10.0,ENE,4.6,-,0.00,Rain,Light Rain,70,2013-01-11 21:51:00
5:51 PM,41.0,39.0,93,30.22,4.0,Calm,Calm,-,0.04,Rain,Light Rain,0,2013-01-11 22:51:00
6:05 PM,41.0,39.2,93,30.21,4.0,ENE,3.5,-,0.01,Rain,Light Rain,60,2013-01-11 23:05:00
6:17 PM,41.0,39.2,93,30.20,4.0,ENE,3.5,-,0.02,Rain,Light Rain,70,2013-01-11 23:17:00
6:51 PM,41.0,39.9,96,30.17,4.0,NE,3.5,-,0.09,Rain,Light Rain,40,2013-01-11 23:51:00
7:51 PM,39.9,39.0,97,30.20,4.0,NW,6.9,-,0.18,Rain,Rain,320,2013-01-12 00:51:00
8:51 PM,39.9,39.9,100,30.17,4.0,Calm,Calm,-,0.07,Rain,Rain,0,2013-01-12 01:51:00
9:51 PM,41.0,41.0,100,30.15,3.0,North,4.6,-,0.04,Rain,Light Rain,10,2013-01-12 02:51:00
10:51 PM,42.1,41.0,96,30.12,4.0,North,3.5,-,0.02,,Overcast,10,2013-01-12 03:51:00
11:51 PM,42.1,42.1,100,30.10,3.0,North,4.6,-,0.03,,Overcast,360,2013-01-12 04:51:00